Regional Weather Roundup
Issued by NWS

Home | Current Version | Previous Version | Text Only | Print | Product List | Glossary Off
Versions: 1 2 3 4 5 6 7 8 9 10 11 12 13 14 15 16 17 18 19 20 21 22 23 24 25 26 27 28 29 30 31 32 33 34 35 36 37 38 39 40 41 42 43 44 45 46 47 48 49 50

000
ASUS45 KSLC 030410
RWRUT

UTAH REGIONAL WEATHER ROUNDUP
NATIONAL WEATHER SERVICE SALT LAKE CITY UT
900 PM MST MON MAR 02 2015

UTZ001>011-023>025-030500-

NORTHERN UTAH

CITY           SKY/WX    TMP DP  RH WIND       PRES   REMARKS
BRIGHAM CITY   CLOUDY    33  32  96 SE8       29.71F WCI  26
HILL AFB       LGT SNOW  32  32 100 NW7       29.73R VSB 3/4 WCI  25
LOGAN          LGT SNOW  33  31  92 E6        29.71R FOG     WCI  28
OGDEN          LGT SNOW  32  32 100 CALM      29.73R VSB 3/4
PROVO AIRPORT  CLOUDY    37  32  81 SW15      29.74R WCI  28
SALT LAKE CITY LGT RAIN  34  33  96 NW9       29.75R WCI  27
VERNAL         CLOUDY    32  31  96 SE5       29.66S WCI  27
WENDOVER         N/A     32  28  86 CALM      29.76R
HEBER CITY     CLOUDY    34  28  80 SW15G21   29.67R WCI  24
WEST JORDAN    CLOUDY    34  34 100 NW13      29.75R WCI  25

$$

UTZ012>022-026-027-030500-

SOUTHERN/CENTRAL UTAH

CITY           SKY/WX    TMP DP  RH WIND       PRES   REMARKS
BLANDING       CLOUDY    33  32  96 S14       29.96R WCI  23
BRYCE CANYON   LGT SNOW  26  21  81 SW14      29.84R WCI  14
CEDAR CITY     MOCLDY    30  28  92 SW17      29.84R WCI  18
DELTA          CLOUDY    36  32  87 SW10      29.78R WCI  28
HANKSVILLE       N/A     41  28  60 SW8G16    29.80R
MILFORD          N/A     34  29  82 S18       29.82R WCI  23
MOAB/CYNLANDS    N/A     40  31  70 SW18      29.74R WCI  31
PRICE          CLOUDY    33  30  88 E6        29.71R WCI  28
ST GEORGE      MOCLDY    41  36  81 E8        29.94R
KANAB          MOCLDY    34  32  93 SW7       29.95R WCI  28

$$

REGIONAL REPORTS     COLORADO/ARIZONA

CITY           SKY/WX    TMP DP  RH WIND       PRES   REMARKS
CRAIG, CO      CLOUDY    33  32  96 CALM      29.64F
GRAND JUNCTION CLOUDY    40  33  76 W8        29.74R WCI  34
RIFLE          CLOUDY    36  32  85 E9        29.69F WCI  29
MONTROSE       MOCLDY    38  30  73 SE9       29.81F WCI  31
CORTEZ         CLOUDY    35  29  78 SW13      29.92R WCI  26
PAGE, AZ         N/A     41  29  62 S6        29.89R
GRAND CANYON   CLOUDY    29  27  92 SW15      29.93R WCI  18
KINGMAN          N/A     40  35  83 SE6       29.94R
FLAGSTAFF      SNOW      29  27  92 SW9       29.95S VSB 1/2 WCI  20

$$

REGIONAL REPORTS    NEVADA/IDAHO/WYOMING

CITY           SKY/WX    TMP DP  RH WIND       PRES   REMARKS
LAS VEGAS, NV    N/A     49  35  58 SW6       29.86R
ELY              N/A     25  23  92 CALM      29.81R
ELKO             N/A     30  24  78 W5        29.77R WCI  25
POCATELLO, ID    N/A     31  23  72 S10       29.67R WCI  22
BURLEY           N/A     36  18  48 W14G21    29.68R WCI  27
EVANSTON, WY   LGT SNOW  28  26  92 W15       29.63R FOG     WCI  16
ROCK SPRINGS   SNOW      28  27  96 W12       29.60S VSB 1/2 WCI  18
KEMMERER       CLOUDY    28  28 100 SW10      29.59S WCI  19

$$


USA.gov is the U.S. government's official web portal to all federal, state and local government web resources and services.